[[[{"header":{"parameterUnit":"kt","parameterCategory":2,"dx":1,"dy":1,"la1":30.253999710083008,"la2":30.299108505249023,"lo1":-89.0895004272461,"lo2":-89.04439544677734,"nx":28,"ny":28,"refTime":"2022-09-17T21:00:00:Z","depth":0,"parameterNumber":1,"parameterNumberName":"U-component_of_WINDS"},"data":[-2.3353,-2.3355,-2.3328,-2.3319,-2.3293,-2.3282,-2.3269,-2.325,-2.3228,-2.3211,-2.3197,-2.317,-2.3137,-2.3113,-2.3096,-2.3084,-2.308,-2.3101,-2.3084,-2.3014,-2.3003,-2.2992,-2.299,-2.3099,-2.31,-2.316,-2.3161,-2.3161,-2.3305,-2.328,-2.3267,-2.3236,-2.3224,-2.3188,-2.316,-2.3153,-2.3144,-2.3116,-2.31,-2.3083,-2.3066,-2.3025,-2.3004,-2.3005,-2.2987,-2.3001,-2.3002,-2.2997,-2.2921,-2.292,-2.3016,-2.3016,-2.3016,-2.3016,-2.3016,-2.3016,-2.3212,-2.3214,-2.318,-2.3165,-2.3142,-2.3121,-2.3118,-2.3085,-2.3071,-2.3046,-2.3015,-2.3004,-2.2971,-2.2932,-2.2912,-2.2903,-2.2882,-2.2889,-2.2891,-2.2895,-2.2903,-2.2822,-2.2897,-2.2897,-2.2897,-2.2896,-2.2896,0,-2.3136,-2.3113,-2.3098,-2.3076,-2.3063,-2.3042,-2.3019,-2.3016,-2.2958,-2.2949,-2.2934,-2.2921,-2.2894,-2.2878,-2.2851,-2.2828,-2.279,-2.2783,-2.2788,-2.2804,-2.2822,-2.2815,-2.2694,-2.2781,-2.278,-2.2779,-2.2779,-2.2778,-2.3042,-2.3047,-2.2997,-2.299,-2.297,-2.296,-2.2948,-2.2896,-2.2886,-2.2849,-2.2853,-2.2835,-2.2818,-2.2798,-2.2758,-2.2739,-2.272,-2.2757,-2.2717,-2.2732,-2.2723,-2.2724,-2.2725,-2.2766,-2.2768,-2.2769,-2.277,0,-2.2991,-2.2946,-2.2945,-2.2895,-2.2882,-2.2891,-2.2847,-2.2847,-2.2813,-2.2809,-2.2804,-2.2752,-2.2738,-2.2692,-2.2666,-2.2643,-2.2657,-2.2638,-2.2669,-2.2663,-2.2693,-2.2691,-2.2792,-2.2803,-2.2687,-2.2688,-2.2689,0,-2.2894,-2.2903,-2.2835,-2.2837,-2.2845,-2.2792,-2.2801,-2.2774,-2.2743,-2.2739,-2.2687,-2.2684,-2.2625,-2.2615,-2.2581,-2.2583,-2.2578,-2.2561,-2.2552,-2.2567,-2.2569,-2.2562,-2.2558,-2.2529,-2.2528,-2.2528,-2.2527,0,-2.2822,-2.2795,-2.2798,-2.2784,-2.2731,-2.2733,-2.2711,-2.2677,-2.2665,-2.2643,-2.2635,-2.2613,-2.2601,-2.2585,-2.2541,-2.2516,-2.2543,-2.2499,-2.2525,-2.2527,-2.2535,-2.2536,-2.2635,-2.2527,-2.2527,-2.2527,-2.2526,0,-2.2737,-2.2716,-2.2725,-2.268,-2.2675,-2.2676,-2.2651,-2.2641,-2.2609,-2.2586,-2.2568,-2.2529,-2.2526,-2.2487,-2.2483,-2.2463,-2.2455,-2.2437,-2.2438,-2.2437,-2.2395,-2.2459,-2.2556,-2.2566,-2.2434,-2.2433,-2.2432,0,-2.2668,-2.2665,-2.262,-2.263,-2.2623,-2.2565,-2.2566,-2.2538,-2.2509,-2.2498,-2.2465,-2.2453,-2.2413,-2.2403,-2.2407,-2.2373,-2.2399,-2.2368,-2.2355,-2.2355,-2.2368,-2.2456,-2.2484,-2.254,-2.2421,-2.2423,-2.2423,0,-2.2609,-2.2543,-2.2548,-2.2531,-2.2486,-2.2479,-2.2479,-2.2455,-2.2451,-2.2425,-2.2424,-2.2405,-2.2375,-2.2359,-2.2324,-2.2331,-2.238,-2.2298,-2.2296,-2.2316,-2.2411,-2.2438,-2.2447,-2.2355,-2.2356,-2.2357,-2.2415,0,-2.2494,-2.2486,-2.2497,-2.246,-2.2447,-2.245,-2.24,-2.2393,-2.2361,-2.233,-2.2327,-2.2292,-2.2268,-2.2266,-2.2234,-2.2264,-2.2252,-2.222,-2.2179,-2.2237,-2.2255,-2.2262,-2.2157,-2.2155,-2.2154,-2.2153,0,0,-2.244,-2.2428,-2.2377,-2.2375,-2.2361,-2.2302,-2.231,-2.2289,-2.2249,-2.2241,-2.2218,-2.2187,-2.216,-2.2162,-2.2176,-2.2166,-2.2167,-2.2148,-2.2209,-2.2216,-2.2222,-2.2242,-2.225,-2.215,-2.215,-2.215,-2.2149,0,-2.2388,-2.236,-2.2369,-2.2345,-2.2308,-2.2274,-2.2276,-2.2229,-2.2209,-2.2206,-2.2157,-2.215,-2.2126,-2.2104,-2.2089,-2.2146,-2.2111,-2.2142,-2.2191,-2.2198,-2.2207,-2.2214,-2.2235,-2.2244,-2.2146,-2.2146,-2.2146,0,-2.2322,-2.2287,-2.2286,-2.225,-2.2226,-2.2219,-2.2164,-2.2158,-2.2153,-2.2088,-2.2086,-2.206,-2.2025,-2.2033,-2.2035,-2.2014,-2.2063,-2.2038,-2.2044,-2.2044,-2.2049,-2.2059,-2.2068,-2.1952,-2.1952,-2.1951,0,0,-2.2284,-2.2276,-2.2222,-2.2235,-2.2223,-2.2173,-2.2164,-2.2131,-2.2101,-2.2089,-2.2055,-2.2027,-2.2013,-2.2005,-2.1989,-2.2004,-2.1994,-2.2016,-2.2025,-2.2033,-2.2037,-2.2044,-2.2054,-2.1949,-2.1949,-2.1949,0,0,-2.2266,-2.2204,-2.2177,-2.2186,-2.2159,-2.2107,-2.2117,-2.2082,-2.2063,-2.2057,-2.2001,-2.1991,-2.1997,-2.1974,-2.1956,-2.1974,-2.1934,-2.1937,-2.1989,-2.2,-2.2009,-2.2015,-2.1895,0,0,0,0,0,-2.2187,-2.2212,-2.2188,-2.2182,-2.2137,-2.212,-2.2114,-2.2068,-2.2042,-2.2051,-2.2016,-2.1978,-2.1953,-2.1935,-2.193,-2.1951,-2.1927,-2.1931,-2.1934,-2.2005,-2.2017,-2.2027,0,0,0,0,0,0,-2.2184,-2.2177,-2.2187,-2.2137,-2.2126,-2.2119,-2.2064,-2.2052,-2.204,-2.2032,-2.1986,-2.1977,-2.1938,-2.1935,-2.1931,-2.1952,-2.1896,-2.1928,-2.1932,-2.1935,-2.2009,-2.2018,-2.2027,0,0,0,0,0,-2.2182,-2.2176,-2.2116,-2.2136,-2.2127,-2.2072,-2.2062,-2.2052,-2.2042,-2.1989,-2.1978,-2.2008,-2.1939,-2.1933,-2.1932,-2.1955,-2.1898,-2.1897,-2.193,-2.1933,-2.1936,-2.2013,0,0,0,0,0,0,-2.218,-2.2167,-2.2113,-2.2109,-2.2123,-2.2071,-2.2061,-2.2052,-2.1998,-2.1988,-2.2008,-2.2003,-2.1941,-2.1936,-2.1931,-2.1958,-2.19,-2.1899,-2.1898,-2.1932,-2.1935,-2.1936,0,0,0,0,0,0,-2.2169,-2.2163,-2.2111,-2.2097,-2.2091,-2.2071,-2.2062,-2.2055,-2.1998,-2.202,-2.2014,-2.2007,-2.1948,-2.1938,-2.1934,-2.1924,-2.1902,-2.19,-2.19,-2.1899,-2.1934,-2.1936,0,0,0,0,0,0,-2.2166,-2.2161,-2.2098,-2.2093,-2.2087,-2.2033,-2.2063,-2.202,-2.1986,-2.2023,-2.1982,-2.198,-2.1951,-2.1946,-2.1936,-2.1928,-2.1925,-2.1902,-2.1901,-2.19,-2.19,0,0,0,0,0,0,0,-2.2163,-2.221,-2.214,-2.209,-2.2085,-2.2067,-2.2066,-2.2064,-2.1986,-2.1984,-2.1983,-2.1981,-2.1909,-2.1907,-2.1906,-2.1932,0,0,-2.1902,-2.1901,0,0,0,0,0,0,0,0,-2.2211,-2.221,-2.214,-2.2139,-2.2138,-2.2067,-2.2066,-2.2065,-2.1986,-2.1984,-2.1983,-2.1982,-2.1908,-2.1907,-2.1906,0,0,0,0,0,0,0,0,0,0,0,0,0,0,0,-2.214,-2.2139,0,-2.2067,-2.2066,-2.2065,-2.1985,-2.1984,-2.1983,-2.1982,-2.1908,-2.1907,-2.1906,0,0,0,0,0,0,0,0,0,0,0,0,0,0,0,0,0,0,0,0,0,0,0,0,0,0,0,0,0,0,0,0,0,0,0,0,0,0,0,0,0,0,0,0,0,0,0,0,0,0,0,0,0,0,0,0,0,0,0,0,0,0,0,0,0,0,0,0,0]}],[{"header":{"parameterUnit":"kt","parameterCategory":2,"dx":1,"dy":1,"la1":30.253999710083008,"la2":30.299108505249023,"lo1":-89.0895004272461,"lo2":-89.04439544677734,"nx":28,"ny":28,"refTime":"2022-09-17T21:00:00:Z","depth":0,"parameterNumber":2,"parameterNumberName":"V-component_of_WINDS"},"data":[-6.2273,-6.2294,-6.2362,-6.2416,-6.2486,-6.2535,-6.2574,-6.2631,-6.2693,-6.2759,-6.2808,-6.2876,-6.2963,-6.3037,-6.3094,-6.3123,-6.3142,-6.3103,-6.3144,-6.326,-6.328,-6.33,-6.3301,-6.3106,-6.3106,-6.3015,-6.3014,-6.3013,-6.2362,-6.2432,-6.248,-6.2571,-6.2613,-6.2694,-6.2772,-6.2801,-6.2842,-6.2917,-6.2968,-6.3029,-6.3086,-6.3187,-6.3252,-6.3264,-6.3304,-6.3277,-6.3277,-6.329,-6.3417,-6.3417,-6.3244,-6.3244,-6.3244,-6.3244,-6.3244,-6.3244,-6.2543,-6.2551,-6.2646,-6.2699,-6.2762,-6.2822,-6.2842,-6.2926,-6.2971,-6.3047,-6.3116,-6.3161,-6.3248,-6.3356,-6.3408,-6.3446,-6.3487,-6.3477,-6.3475,-6.3471,-6.346,-6.3589,-6.3459,-6.3459,-6.346,-6.3461,-6.3461,0,-6.2697,-6.2753,-6.2801,-6.2871,-6.2912,-6.297,-6.3035,-6.3048,-6.3185,-6.3216,-6.3267,-6.3307,-6.3386,-6.344,-6.3514,-6.357,-6.3653,-6.3666,-6.3661,-6.363,-6.3595,-6.3617,-6.3823,-6.3669,-6.3671,-6.3672,-6.3674,-6.3674,-6.2886,-6.2886,-6.3015,-6.304,-6.3092,-6.3129,-6.3165,-6.3285,-6.3317,-6.3413,-6.3413,-6.3469,-6.352,-6.3587,-6.3681,-6.3738,-6.3778,-6.3714,-6.3787,-6.3759,-6.3781,-6.3781,-6.3783,-6.3696,-6.3693,-6.3691,-6.3689,0,-6.2988,-6.3096,-6.3115,-6.3242,-6.3274,-6.3267,-6.3375,-6.3386,-6.3464,-6.349,-6.3503,-6.3624,-6.367,-6.3775,-6.3845,-6.3899,-6.3892,-6.3928,-6.3866,-6.3879,-6.3834,-6.3837,-6.3662,-6.3647,-6.3848,-6.3846,-6.3844,0,-6.3192,-6.3185,-6.3347,-6.3352,-6.335,-6.3471,-6.3465,-6.3531,-6.3606,-6.3628,-6.3739,-6.3756,-6.3887,-6.392,-6.3998,-6.401,-6.4022,-6.4064,-6.4085,-6.4055,-6.405,-6.4072,-6.4082,-6.4128,-6.4129,-6.4129,-6.413,0,-6.334,-6.3415,-6.3425,-6.3459,-6.3591,-6.3592,-6.3646,-6.373,-6.3761,-6.3819,-6.3842,-6.3899,-6.393,-6.3973,-6.4073,-6.4119,-6.4088,-6.4173,-6.4132,-6.4129,-6.4118,-6.4117,-6.3937,-6.4131,-6.4131,-6.4132,-6.4132,0,-6.3521,-6.3578,-6.3574,-6.3688,-6.3702,-6.3706,-6.3773,-6.38,-6.388,-6.393,-6.3975,-6.4061,-6.4077,-6.4155,-6.418,-6.4213,-6.4238,-6.4279,-6.4278,-6.4285,-6.4369,-6.4255,-6.4071,-6.4057,-6.4294,-6.4296,-6.4297,0,-6.3663,-6.3685,-6.379,-6.3781,-6.3806,-6.3933,-6.3939,-6.4005,-6.4073,-6.4104,-6.4178,-6.4209,-6.4288,-6.4313,-6.4311,-6.4388,-6.4345,-6.4397,-6.444,-6.444,-6.4419,-6.425,-6.4197,-6.41,-6.4316,-6.4314,-6.4312,0,-6.3786,-6.3944,-6.3934,-6.398,-6.4086,-6.4105,-6.4112,-6.4171,-6.4187,-6.4245,-6.4255,-6.4299,-6.4363,-6.4399,-6.4473,-6.4466,-6.4378,-6.4533,-6.4537,-6.4504,-6.4332,-6.4283,-6.4266,-6.4429,-6.4427,-6.4425,-6.4327,0,-6.4041,-6.4064,-6.4043,-6.4132,-6.4164,-6.4161,-6.4273,-6.4291,-6.4362,-6.4432,-6.4445,-6.452,-6.4576,-6.4582,-6.4647,-6.4597,-6.4621,-6.4686,-6.4767,-6.4655,-6.4626,-6.4613,-6.4803,-6.4806,-6.4809,-6.4811,0,0,-6.4151,-6.4186,-6.4296,-6.4307,-6.434,-6.4469,-6.4457,-6.4503,-6.4591,-6.4612,-6.4659,-6.4731,-6.4789,-6.4792,-6.4766,-6.4786,-6.4788,-6.482,-6.4707,-6.4695,-6.4684,-6.4651,-6.4636,-6.4816,-6.4816,-6.4817,-6.4818,0,-6.4268,-6.4327,-6.4314,-6.4369,-6.4453,-6.4527,-6.4524,-6.4628,-6.4671,-6.4682,-6.4786,-6.4805,-6.4855,-6.4905,-6.4937,-6.4824,-6.4899,-6.4831,-6.4737,-6.4729,-6.4713,-6.47,-6.4663,-6.4648,-6.4824,-6.4824,-6.4824,0,-6.441,-6.4489,-6.4493,-6.4573,-6.4627,-6.4646,-6.4762,-6.4775,-6.4791,-6.4924,-6.4932,-6.4988,-6.5061,-6.5047,-6.5045,-6.5087,-6.4994,-6.504,-6.5026,-6.5028,-6.5026,-6.5007,-6.499,-6.521,-6.5211,-6.5212,0,0,-6.4495,-6.4516,-6.4634,-6.4606,-6.4633,-6.4743,-6.4762,-6.4834,-6.4898,-6.4923,-6.4995,-6.5053,-6.5086,-6.5103,-6.5137,-6.5105,-6.5131,-6.5083,-6.5065,-6.5049,-6.5042,-6.5036,-6.5017,-6.5216,-6.5216,-6.5216,0,0,-6.4535,-6.4672,-6.4732,-6.4713,-6.4772,-6.4885,-6.4863,-6.4937,-6.4979,-6.4991,-6.5108,-6.5128,-6.5117,-6.5165,-6.52,-6.5168,-6.5247,-6.524,-6.5136,-6.5115,-6.5097,-6.5086,-6.5325,0,0,0,0,0,-6.471,-6.4657,-6.4709,-6.4722,-6.4819,-6.4856,-6.4869,-6.4967,-6.5023,-6.5004,-6.5077,-6.5154,-6.5209,-6.5243,-6.5253,-6.5212,-6.5261,-6.5253,-6.5245,-6.5105,-6.5081,-6.5061,0,0,0,0,0,0,-6.4716,-6.4731,-6.4711,-6.4819,-6.4842,-6.4859,-6.4976,-6.5001,-6.5027,-6.5043,-6.5138,-6.5157,-6.5239,-6.5245,-6.5252,-6.5211,-6.5322,-6.5258,-6.5251,-6.5245,-6.5096,-6.5077,-6.506,0,0,0,0,0,-6.4721,-6.4734,-6.4864,-6.4821,-6.484,-6.4958,-6.4979,-6.5001,-6.5022,-6.5133,-6.5155,-6.5093,-6.5235,-6.5248,-6.5249,-6.5206,-6.5318,-6.532,-6.5253,-6.5248,-6.5243,-6.5087,0,0,0,0,0,0,-6.4725,-6.4754,-6.4871,-6.488,-6.4848,-6.4959,-6.498,-6.4999,-6.5113,-6.5134,-6.5094,-6.5104,-6.5232,-6.5242,-6.5251,-6.5198,-6.5314,-6.5317,-6.5318,-6.5249,-6.5245,-6.5241,0,0,0,0,0,0,-6.4747,-6.4761,-6.4875,-6.4904,-6.4918,-6.4959,-6.4978,-6.4991,-6.5112,-6.5068,-6.5081,-6.5097,-6.5217,-6.5238,-6.5246,-6.5262,-6.5312,-6.5314,-6.5315,-6.5316,-6.5246,-6.5242,0,0,0,0,0,0,-6.4755,-6.4766,-6.4902,-6.4913,-6.4925,-6.504,-6.4973,-6.5065,-6.514,-6.5061,-6.5149,-6.5153,-6.521,-6.522,-6.5241,-6.5254,-6.526,-6.5312,-6.5313,-6.5314,-6.5315,0,0,0,0,0,0,0,-6.4761,-6.4661,-6.4814,-6.492,-6.4931,-6.4969,-6.4972,-6.4975,-6.5141,-6.5144,-6.5148,-6.5151,-6.5298,-6.5301,-6.5303,-6.5247,0,0,-6.5311,-6.5312,0,0,0,0,0,0,0,0,-6.4658,-6.466,-6.4814,-6.4816,-6.4818,-6.497,-6.4972,-6.4974,-6.5141,-6.5144,-6.5147,-6.515,-6.5299,-6.5301,-6.5303,0,0,0,0,0,0,0,0,0,0,0,0,0,0,0,-6.4814,-6.4816,0,-6.497,-6.4972,-6.4974,-6.5142,-6.5144,-6.5147,-6.5149,-6.5299,-6.5301,-6.5303,0,0,0,0,0,0,0,0,0,0,0,0,0,0,0,0,0,0,0,0,0,0,0,0,0,0,0,0,0,0,0,0,0,0,0,0,0,0,0,0,0,0,0,0,0,0,0,0,0,0,0,0,0,0,0,0,0,0,0,0,0,0,0,0,0,0,0,0,0]}]]]